Weather History for KEPH - December, 2013

Change the Weather History Date:

Wednesday, December 25, 2013

  Actual Average Record
Temperature  
Mean Temperature 29 °F 26 °F  
Max Temperature 37 °F 32 °F 53 °F (1957)
Min Temperature 21 °F 20 °F -1 °F (1964)
Degree Days  
Heating Degree Days 36 39  
Month to date heating degree days 1002 935  
Since 1 July heating degree days 2371 2354  
Cooling Degree Days 0 0  
Month to date cooling degree days 0 0  
Year to date cooling degree days 1084 772  
Moisture  
Dew Point 24 °F    
Average Humidity 80    
Maximum Humidity 96    
Minimum Humidity 64    
Precipitation  
Precipitation 0.00 in 0.04 in 0.24 in (1980)
Month to date precipitation 0.01 1.02  
Year to date precipitation 5.71 7.63  
Sea Level Pressure  
Sea Level Pressure 30.51 in    
Wind  
Wind Speed 5 mph (North)    
Max Wind Speed 12 mph    
Max Gust Speed 13 mph    
Visibility 10 miles    
Events      
T = Trace of Precipitation, MM = Missing Value Source: NWS Daily Summary

Daily Weather History Graph

Daily Weather History Graph

Search for Another Location

Airport or City:

Trip Planner

Search our weather history database for the weather conditions in past years. The results will help you decide how hot, cold, wet, or windy it might be!

Date:

Astronomy

Dec. 25, 2013 Rise Set
Actual Time 7:44 AM PST 4:12 PM PST
Civil Twilight 7:08 AM PST 4:48 PM PST
Nautical Twilight 6:29 AM PST 5:27 PM PST
Astronomical Twilight 5:51 AM PST 6:04 PM PST
Moon No Moon Rise 11:39 AM PST (12/25)
Length of Visible Light 9h 40m
Length of Day
8h 28m
Waning Gibbous, 47% of the Moon is Illuminated
Dec 25
Waning Gibbous
Jan 1
New
Jan 7
First Quarter
Jan 15
Full
Jan 23
Last Quarter

Hourly Weather History & Observations

Time (PST) Temp. Windchill Dew Point Humidity Pressure Visibility Wind Dir Wind Speed Gust Speed Precip Events Conditions
12:53 AM 21.9 °F 12.5 °F 19.9 °F 92% 30.57 in 10.0 mi North 8.1 mph - N/A   Clear
1:53 AM 24.1 °F 16.0 °F 21.0 °F 88% 30.57 in 10.0 mi NNW 6.9 mph - N/A   Clear
2:53 AM 24.1 °F 15.2 °F 21.0 °F 88% 30.58 in 10.0 mi NNW 8.1 mph - N/A   Clear
3:53 AM 25.0 °F 16.3 °F 21.9 °F 88% 30.57 in 10.0 mi NNW 8.1 mph - N/A   Clear
4:53 AM 24.1 °F 16.0 °F 21.0 °F 88% 30.57 in 10.0 mi NNW 6.9 mph - N/A   Clear
5:53 AM 21.9 °F 11.7 °F 19.0 °F 89% 30.56 in 10.0 mi North 9.2 mph - N/A   Clear
6:53 AM 24.1 °F 14.4 °F 21.0 °F 88% 30.56 in 10.0 mi North 9.2 mph - N/A   Clear
7:53 AM 21.9 °F 17.2 °F 19.0 °F 89% 30.56 in 10.0 mi North 3.5 mph - N/A   Clear
8:53 AM 24.1 °F 17.0 °F 21.0 °F 88% 30.56 in 10.0 mi NNE 5.8 mph - N/A   Clear
9:53 AM 28.9 °F 21.9 °F 25.0 °F 85% 30.57 in 10.0 mi NNE 6.9 mph - N/A   Clear
10:53 AM 34.0 °F 29.8 °F 28.0 °F 79% 30.53 in 10.0 mi NNE 4.6 mph - N/A   Clear
11:53 AM 33.1 °F 30.0 °F 27.0 °F 78% 30.51 in 10.0 mi NE 3.5 mph - N/A   Clear
12:53 PM 35.1 °F 30.1 °F 27.0 °F 72% 30.48 in 10.0 mi ENE 5.8 mph - N/A   Partly Cloudy
1:53 PM 37.0 °F 34.5 °F 27.0 °F 67% 30.47 in 10.0 mi Variable 3.5 mph - N/A   Clear
2:53 PM 37.0 °F - 27.0 °F 67% 30.46 in 10.0 mi Calm Calm - N/A   Clear
3:53 PM 36.0 °F - 27.0 °F 70% 30.47 in 10.0 mi Calm Calm - N/A   Clear
4:53 PM 32.0 °F - 26.1 °F 79% 30.47 in 10.0 mi Calm Calm - N/A   Partly Cloudy
5:53 PM 32.0 °F - 27.0 °F 82% 30.47 in 10.0 mi Calm Calm - N/A   Clear
6:53 PM 30.9 °F 27.5 °F 26.1 °F 82% 30.48 in 10.0 mi North 3.5 mph - N/A   Clear
7:53 PM 30.9 °F - 26.1 °F 82% 30.48 in 10.0 mi Calm Calm - N/A   Partly Cloudy
8:53 PM 32.0 °F 26.4 °F 26.1 °F 79% 30.47 in 10.0 mi NW 5.8 mph - N/A   Clear
9:53 PM 30.9 °F 26.2 °F 26.1 °F 82% 30.45 in 10.0 mi NW 4.6 mph - N/A   Clear
10:53 PM 30.0 °F - 26.1 °F 85% 30.45 in 10.0 mi Calm Calm - N/A   Clear
11:53 PM 30.9 °F 24.3 °F 26.1 °F 82% 30.45 in 10.0 mi NW 6.9 mph - N/A   Clear